Weather History for Hillsdale, MI

Change the Weather History Date:

Wednesday, October 9, 2013

  Actual Average Record
Temperature  
Mean Temperature 55 °F -  
Max Temperature 70 °F 63 °F 85 °F (1949)
Min Temperature 40 °F 41 °F 21 °F (1989)
Degree Days  
Heating Degree Days 10    
Growing Degree Days 5 (Base 50)    
Moisture  
Dew Point 44 °F    
Average Humidity 70    
Maximum Humidity 100    
Minimum Humidity 28    
Precipitation  
Precipitation 0.00 in - - ()
Sea Level Pressure  
Sea Level Pressure 30.26 in    
Wind  
Wind Speed 4 mph (ESE)    
Max Wind Speed 9 mph    
Max Gust Speed -    
Visibility 9 miles    
Events      
Averages and records for this station are not official NWS values.
T = Trace of Precipitation, MM = Missing Value Source: NWS Daily Summary

Daily Weather History Graph

Daily Weather History Graph

Search for Another Location

Airport:

Trip Planner

Search our weather history database for the weather conditions in past years. The results will help you decide how hot, cold, wet, or windy it might be!

Date:

Astronomy

Oct. 09, 2013 Rise Set
Actual Time 7:44 AM EDT 7:06 PM EDT
Civil Twilight 7:16 AM EDT 7:33 PM EDT
Nautical Twilight 6:44 AM EDT 8:06 PM EDT
Astronomical Twilight 6:11 AM EDT 8:38 PM EDT
Moon 12:42 PM EDT (10/9) 10:36 PM EDT (10/9)
Length of Visible Light 12h 17m
Length of Day
11h 21m
Waxing Crescent, 25% of the Moon is Illuminated
Oct 9
Waxing Crescent
Oct 11
First Quarter
Oct 18
Full
Oct 26
Last Quarter
Nov 3
New

Hourly Weather History & Observations

Time (EDT) Temp. Dew Point Humidity Pressure Visibility Wind Dir Wind Speed Gust Speed Precip Events Conditions
12:15 AM 51.8 °F 48.9 °F 90% 30.26 in 10.0 mi SE 4.6 mph - N/A   Clear
12:35 AM 51.8 °F 49.1 °F 90% 30.25 in 10.0 mi SE 4.6 mph - N/A   Clear
12:54 AM 51.4 °F 48.9 °F 91% 30.25 in 10.0 mi ESE 3.5 mph - N/A   Clear
1:15 AM 51.1 °F 49.1 °F 93% 30.25 in 10.0 mi SE 4.6 mph - N/A   Clear
1:35 AM 51.3 °F 49.1 °F 92% 30.25 in 10.0 mi SE 4.6 mph - N/A   Clear
1:54 AM 51.3 °F 49.3 °F 93% 30.25 in 10.0 mi SE 3.5 mph - N/A   Clear
2:15 AM 50.7 °F 49.3 °F 95% 30.26 in 10.0 mi ESE 3.5 mph - N/A   Clear
2:34 AM 50.4 °F 49.3 °F 96% 30.26 in 10.0 mi ESE 3.5 mph - N/A   Clear
2:54 AM 50.5 °F 49.3 °F 95% 30.26 in 10.0 mi SE 4.6 mph - N/A   Clear
3:15 AM 49.8 °F 48.4 °F 95% 30.26 in 10.0 mi ESE 3.5 mph - N/A   Clear
3:34 AM 49.5 °F 48.4 °F 96% 30.25 in 10.0 mi ESE 3.5 mph - N/A   Clear
3:55 AM 49.1 °F 48.2 °F 97% 30.25 in 10.0 mi SE 3.5 mph - N/A   Clear
4:15 AM 48.6 °F 47.5 °F 96% 30.25 in 10.0 mi ESE 3.5 mph - N/A   Clear
4:34 AM 48.2 °F 47.5 °F 97% 30.26 in 7.0 mi SE 4.6 mph - N/A   Clear
4:55 AM 48.9 °F 47.8 °F 96% 30.26 in 10.0 mi SE 3.5 mph - N/A   Clear
5:14 AM 47.3 °F 46.0 °F 95% 30.27 in 10.0 mi Calm Calm - N/A   Clear
5:35 AM 45.3 °F 44.6 °F 97% 30.27 in 7.0 mi Calm Calm - N/A   Clear
5:55 AM 43.0 °F 42.4 °F 98% 30.27 in - Calm Calm - N/A   Unknown
6:14 AM 42.3 °F 42.1 °F 99% 30.27 in 3.0 mi Calm Calm - N/A   Clear
6:35 AM 41.5 °F 41.4 °F 99% 30.27 in 2.5 mi Calm Calm - N/A   Clear
6:55 AM 41.5 °F 41.5 °F 100% 30.28 in 3.0 mi Calm Calm - N/A   Clear
7:14 AM 41.0 °F 40.8 °F 99% 30.28 in 3.0 mi Calm Calm - N/A   Clear
7:35 AM 40.5 °F 40.5 °F 100% 30.28 in 2.5 mi Calm Calm - N/A   Clear
7:55 AM 40.3 °F 40.1 °F 99% 30.28 in 1.5 mi Calm Calm - N/A   Mist
8:14 AM 41.2 °F 41.0 °F 99% 30.29 in 2.0 mi Calm Calm - N/A   Clear
8:35 AM 43.3 °F 43.3 °F 100% 30.29 in 2.5 mi Calm Calm - N/A   Clear
8:55 AM 47.7 °F 47.5 °F 99% 30.30 in 3.0 mi Calm Calm - N/A   Clear
9:14 AM 50.5 °F 50.5 °F 100% 30.30 in 7.0 mi Calm Calm - N/A   Clear
9:35 AM 54.1 °F 51.3 °F 90% 30.30 in 10.0 mi Calm Calm - N/A   Clear
9:54 AM 57.4 °F 50.0 °F 76% 30.30 in 10.0 mi Calm Calm - N/A   Clear
10:14 AM 59.4 °F 46.0 °F 61% 30.30 in 10.0 mi SE 4.6 mph - N/A   Clear
10:35 AM 60.6 °F 46.9 °F 61% 30.31 in 10.0 mi Calm Calm - N/A   Clear
10:54 AM 61.9 °F 45.9 °F 56% 30.31 in 10.0 mi ESE 5.8 mph - N/A   Clear
11:15 AM 62.6 °F 45.9 °F 54% 30.31 in 10.0 mi East 4.6 mph - N/A   Clear
11:34 AM 63.9 °F 44.4 °F 49% 30.30 in 10.0 mi ESE 8.1 mph - N/A   Clear
12:15 PM 64.9 °F 43.5 °F 46% 30.30 in 10.0 mi SSE 6.9 mph - N/A   Clear
12:34 PM 65.3 °F 43.7 °F 46% 30.30 in 10.0 mi SSE 5.8 mph - N/A   Clear
12:55 PM 66.4 °F 43.0 °F 43% 30.29 in 10.0 mi SE 9.2 mph - N/A   Clear
1:15 PM 66.7 °F 43.5 °F 43% 30.29 in 10.0 mi SSE 5.8 mph - N/A   Clear
1:34 PM 67.5 °F 43.2 °F 41% 30.28 in 10.0 mi SE 6.9 mph - N/A   Clear
1:55 PM 68.2 °F 42.4 °F 39% 30.27 in 10.0 mi ESE 8.1 mph - N/A   Clear
2:15 PM 68.4 °F 42.4 °F 39% 30.27 in 10.0 mi ESE 9.2 mph - N/A   Clear
2:34 PM 69.6 °F 41.0 °F 35% 30.26 in 10.0 mi SE 9.2 mph - N/A   Clear
2:55 PM 69.6 °F 39.4 °F 33% 30.25 in 10.0 mi East 8.1 mph - N/A   Clear
3:15 PM 70.3 °F 36.0 °F 28% 30.24 in 10.0 mi ESE 9.2 mph - N/A   Clear
3:34 PM 70.7 °F 39.7 °F 32% 30.23 in 10.0 mi East 9.2 mph - N/A   Clear
3:55 PM 70.5 °F 38.5 °F 31% 30.23 in 10.0 mi ESE 9.2 mph - N/A   Clear
4:14 PM 70.3 °F 38.1 °F 31% 30.23 in 10.0 mi ESE 9.2 mph - N/A   Clear
4:34 PM 70.2 °F 37.4 °F 30% 30.22 in 10.0 mi ESE 8.1 mph - N/A   Clear
4:55 PM 69.8 °F 36.7 °F 30% 30.22 in 10.0 mi ESE 6.9 mph - N/A   Clear
5:14 PM 69.3 °F 38.7 °F 33% 30.22 in 10.0 mi East 8.1 mph - N/A   Clear
5:34 PM 68.4 °F 39.2 °F 34% 30.22 in 10.0 mi East 8.1 mph - N/A   Clear
5:55 PM 67.5 °F 38.7 °F 35% 30.22 in 10.0 mi ESE 6.9 mph - N/A   Clear
6:14 PM 66.2 °F 38.1 °F 36% 30.22 in 10.0 mi East 8.1 mph - N/A   Clear
6:35 PM 64.8 °F 37.4 °F 36% 30.22 in 10.0 mi ESE 6.9 mph - N/A   Clear
6:55 PM 61.9 °F 39.4 °F 43% 30.22 in 10.0 mi ESE 4.6 mph - N/A   Clear
7:14 PM 59.0 °F 40.3 °F 50% 30.22 in 10.0 mi ESE 5.8 mph - N/A   Clear
7:35 PM 57.4 °F 40.6 °F 54% 30.23 in 10.0 mi ESE 4.6 mph - N/A   Clear
7:55 PM 57.6 °F 41.0 °F 54% 30.23 in 10.0 mi ESE 6.9 mph - N/A   Clear
8:14 PM 57.0 °F 41.9 °F 57% 30.23 in 10.0 mi ESE 5.8 mph - N/A   Clear
8:35 PM 55.6 °F 42.6 °F 62% 30.23 in 10.0 mi ESE 5.8 mph - N/A   Clear
8:54 PM 55.2 °F 43.3 °F 64% 30.23 in 10.0 mi ESE 5.8 mph - N/A   Clear
9:14 PM 54.1 °F 44.1 °F 69% 30.22 in 10.0 mi ESE 5.8 mph - N/A   Clear
9:35 PM 54.1 °F 45.5 °F 73% 30.22 in 10.0 mi ESE 4.6 mph - N/A   Clear
9:54 PM 54.0 °F 47.5 °F 79% 30.22 in 10.0 mi ESE 5.8 mph - N/A   Clear
10:15 PM 53.8 °F 47.8 °F 80% 30.22 in 10.0 mi ESE 4.6 mph - N/A   Clear
10:34 PM 52.7 °F 48.0 °F 84% 30.22 in 10.0 mi ESE 4.6 mph - N/A   Clear
10:54 PM 52.9 °F 48.0 °F 84% 30.22 in 10.0 mi ESE 4.6 mph - N/A   Clear
11:15 PM 53.1 °F 48.0 °F 83% 30.22 in 10.0 mi ESE 4.6 mph - N/A   Clear
11:34 PM 53.1 °F 48.0 °F 83% 30.22 in 10.0 mi ESE 4.6 mph - N/A   Clear
11:54 PM 52.7 °F 48.4 °F 85% 30.22 in 10.0 mi ESE 4.6 mph - N/A   Clear